Flag for South Africa Weather past 2 weeks in Port Elizabeth, South Africa

Now
59 °F

Clear.


Feels Like: 57 °F
Forecast: 54 / 62 °F
Wind: 9 mph from West

Location: Port Elizabeth Airport

Current Time: Aug 31, 2015 at 10:21:58 PM

Latest Report: Aug 31, 2015 at 10:00 PM


Visibility: 10 mi

Pressure: 29.95 "Hg

Humidity: 82%

Dew point: 54 °F

Location of Port ElizabethLocation

Historic Weather in Port Elizabeth — Graph

°F

Port Elizabeth temperature yesterday

Maximum temperature yesterday: 61 °F (at 12:00 AM)
Minimum temperature yesterday: 59 °F (at 9:00 AM)
Average temperature yesterday: 61 °F

Past Weeks' High & Low Weather Summary

 TemperatureHumidityPressure
High70 °F (Aug 25, 12:00 PM)100% (Aug 17, 9:00 AM)30.36 "Hg (Aug 17, 9:00 AM)
Low50 °F (Aug 22, 6:00 AM)57% (Aug 25, 12:00 PM)29.89 "Hg (Aug 31, 6:00 PM)
Average61 °F86%30.10 "Hg
* Reported Aug 16 9:00 PM — Aug 31 9:00 PM, Port Elizabeth, Weather by CustomWeather, © 2015

Note: Actual official high and low records may vary slightly from our data, if they occured in-between our weather recording intervals... More about our weather records

Advertising

Port Elizabeth weather history for previous 24 hours

 ConditionsComfort  
Time TempWeatherWind HumidityBarometerVisibility
9:00 PM
Mon, Aug 31
61 °FPassing clouds.15 mph83%29.95 "HgN/A
8:00 PM59 °FPassing clouds.13 mph88%29.92 "HgN/A
7:00 PM61 °FPassing clouds.12 mph83%29.92 "HgN/A
6:00 PM61 °FPassing clouds.9 mph83%29.89 "HgN/A
5:00 PM63 °FPassing clouds.10 mph83%29.92 "HgN/A
4:03 PM61 °FRain. Passing clouds.12 mph94%29.92 "Hg4 mi
3:00 PM61 °FRain. Passing clouds.14 mph88%29.92 "Hg3 mi
2:50 PM61 °FRain. Passing clouds.15 mph88%29.92 "Hg3 mi
2:01 PM61 °FRain. Passing clouds.12 mph94%29.92 "Hg4 mi
1:00 PM61 °FLight rain. Clear.16 mph83%29.92 "Hg6 mi
12:01 PM63 °FRain. Clear.9 mph83%29.95 "Hg4 mi
11:00 AM64 °FSunny.10 mph83%29.95 "Hg10 mi
10:00 AM63 °FSunny.9 mph83%29.95 "Hg10 mi
9:00 AM63 °FSunny.5 mph88%29.95 "Hg10 mi
8:00 AM59 °FSunny.3 mph94%29.95 "Hg10 mi
7:00 AM59 °FPassing clouds.3 mph94%29.95 "HgN/A
6:00 AM57 °FScattered clouds.3 mph94%29.95 "HgN/A
5:00 AM57 °FPassing clouds.2 mph94%29.95 "HgN/A
4:00 AM59 °FClear.No wind94%29.98 "Hg10 mi
3:00 AM59 °FClear.3 mph94%29.98 "Hg10 mi
2:00 AM59 °FClear.3 mph94%30.01 "Hg10 mi
1:00 AM59 °FPassing clouds.6 mph94%30.04 "HgN/A
12:00 AM59 °FPassing clouds.7 mph94%30.04 "HgN/A
11:00 PM
Sun, Aug 30
61 °FLight rain. Passing clouds.8 mph88%30.07 "Hg5 mi
10:00 PM61 °FLight rain. Passing clouds.9 mph94%30.09 "Hg5 mi
Weather by CustomWeather, © 2015

See weather overviewHow to use our weather pages